Welcome to PTAR Digital Resources
Server Bandwidth
Current Folder:
/newspaper/2017/03Mac/
← Back
This page contains 0 folder(s) and 101 file(s) with Total Size is 1.2 G (for files only, not including folders).
Filename Filesize Filetime Hits
20170301_UM_Johor Bayar RM10 juta deposit SAJHpdf.pdf223.1 K11/30/2017 12:54:57 PM0
20170301_UM_Pan Borneo SME Bank tawar pembiayaan.pdf226.3 K11/30/2017 1:38:02 PM0
20170301_UM_Perjanjian RM31 bilion.pdf208.8 K11/30/2017 1:57:09 PM0
20170301_UM_Utusanbiz - Perlaburan China di Malaysia bersifat jangka panjang.pdf227.0 K11/30/2017 2:03:27 PM0
20170302_UM_2 bekas pegawai felda dituduh pecah amanah RM47.6j.pdf222.4 K11/30/2017 2:13:28 PM0
20170302_UM_Matta Fair sasar jualan RM180 juta.pdf225.4 K11/30/2017 2:19:05 PM0
20170302_UM_RHB Bank sasar 50,000 deposit.pdf262.0 K11/30/2017 2:32:11 PM0
20170303_UM_122SJKC terima RM7.2 juta baiki insfrastruktur.pdf233.0 K11/30/2017 2:36:50 PM0
20170303_UM_Affin Bank laksana platform pengurusn risiko.pdf227.1 K11/30/2017 2:41:13 PM0
20170303_UM_Kerajaan belanja RM1.8 bilion.pdf216.1 K11/30/2017 2:46:47 PM0
20170303_UM_UTUSANBIZ-Catat perlaburan RM207.9 bilion tahun lalu.pdf251.6 K11/30/2017 2:52:41 PM0
20170306_UM_BSN tambah baik skim usahawan mikro, PKS.pdf218.1 K11/30/2017 2:57:02 PM0
20170306_UM_Sasar jualan kraftangan RM15 juta.pdf240.2 K11/30/2017 3:01:36 PM0
20170307_UM_Syarikat tempatan melaburkan RM500 juta.pdf230.4 K11/30/2017 3:13:51 PM0
20170308_UM_R&D Sawit kerajaan peruntukkan dana 50j.pdf238.0 K11/30/2017 3:24:08 PM0
20170309_HM_52_ceria_dirai_penuntut_uitm.pdf699.4 K4/18/2018 3:07:21 PM0
20170310_UM_Pasaran modal Malaysia RM2.84 trilion.pdf232.5 K11/30/2017 3:28:51 PM0
20170314_UM_RM30 juta projek intervensi sosial.pdf231.4 K11/30/2017 3:38:31 PM1
20170314_UM_RM30juta disalur untuk pemeriksaaan kesihatan wanita.pdf236.2 K11/30/2017 3:33:40 PM0
20170317_UM_Jangan manipulasi CSR elak bayar cukai.pdf227.5 K11/30/2017 3:43:04 PM0
HALAL_20170313_NST_Countries_can_work_on_opportunities_in_halal_industry.pdf7.1 M3/13/2017 9:31:03 AM0
HALAL_20170313_NST_ISLAMIC_CAPITAL_MARKET_CAN_SUPPORT_FINANCING_NEEDS.pdf25.9 M3/13/2017 2:35:55 PM0
LAW_07032017__TS_Thi_Huong.pdf5.4 M3/10/2017 10:47:08 AM0
LAW_07032017_TS_ Kasthuri_rapped_ for_ defending_ Penang_ govt’s_ 8ha_ land_ offer.pdf4.8 M3/10/2017 11:02:56 AM0
LAW_10032017_TS_16_ cops_ in_ the_ dock_ over_bribery.pdf10.3 M3/10/2017 11:26:05 AM0
LAW_10032017_TS_Exco_ man_ held_ son_ out_ on_ bail.pdf30.4 M3/10/2017 11:14:59 AM0
LAW_10032017_TS_New_Child_Sec_Crimes_Law_Could_implemented_in_June.pdf4.9 M3/10/2017 11:59:33 AM0
LAW_20170306_NST_Experts_ weigh_ in_ on_ the_ worth_ of_ N. Korea’s_‘friendship’.pdf11.7 M3/9/2017 3:48:54 PM0
LAW_20170306_NST_NUR_JAZLAN_KANG_MUST_COMPLY_WITH_ORDER_TO_LEAVE.pdf10.1 M3/6/2017 5:43:42 PM0
LAW_20170306_TS_CJ_Read_Judgement_Before_Criticising.pdf10.3 M3/6/2017 4:39:18 PM0
LAW_20170306_TS_Two_Guards_Helds_For_Sodomy.pdf6.8 M3/6/2017 5:32:49 PM0
LAW_20170307_Court_ urged _to_ dismiss_ judicial_ review_ bid_ by_ Maria.pdf6.8 M3/7/2017 9:50:55 PM0
LAW_20170307_Datuk_ among_ 29_ members_ of_ Gang_ 360 _Devan_charged.pdf31.9 M3/7/2017 8:01:24 PM0
LAW_20170307_NST_‘3_TEAMS_PROBED_DENTAL_CLINIC’.pdf7.8 M3/8/2017 4:07:01 PM0
LAW_20170307_NST_All_diplomats_posted_here_must_respect_our_laws_says_Najib.pdf9.0 M3/7/2017 4:05:41 PM0
LAW_20170307_NST_ARRESTS_OF_I.S_DUO_DUE_TO_TRAITOR_SAYS_MALAYSIAN_I.S_LEADER_IN_SYRIA.pdf9.1 M3/7/2017 4:33:55 PM0
LAW_20170307_NST_Cabinet_ministers_laud _royal_address.pdf4.5 M3/8/2017 3:50:34 PM0
LAW_20170307_NST_Dad_claims_trial_to_incest_with_daughter.pdf14.1 M3/8/2017 4:10:48 PM0
LAW_20170307_NST_Ex-MIC_Youth_chief_28 _others_charged.pdf18.4 M3/8/2017 3:37:57 PM0
LAW_20170307_NST_Ex-politician_linked_to_2_more_gangs.pdf3.6 M3/8/2017 3:42:04 PM0
LAW_20170307_NST_FAM_told_not_to_sent_national_football_team_to_Pyongyang.pdf6.2 M3/7/2017 4:13:07 PM0
LAW_20170307_NST_HEALTH_MINISTRY_MAINTAINS_STAND.pdf8.8 M3/7/2017 4:20:27 PM0
LAW_20170307_NST_King_opens_new_Dewan_Rakyat_term.pdf15.2 M3/8/2017 3:45:41 PM0
LAW_20170307_NST_MACC_NABS_TWO_COPS_FOR_GRAFT.pdf9.2 M3/8/2017 3:28:56 PM0
LAW_20170307_NST_MANY_STILL_RIDING_WITHOUT_HELMETS.pdf10.8 M3/8/2017 4:03:07 PM0
LAW_20170307_NST_N_Korea_fires_4_banned_ballistic_missiles_into_sea.pdf10.4 M3/7/2017 4:39:03 PM0
LAW_20170307_NST_NAJIB_WE_ARE_TOUGH_ON_EXTREMISM.pdf19.0 M3/8/2017 3:55:52 PM0
LAW_20170307_NST_Padi_farmer_who_ran_amok_gets_5_year_’ jail,_rotan.pdf2.2 M3/8/2017 4:19:50 PM0
LAW_20170307_NST_PM_Malaysia_determined_to_uncover_truth.pdf4.5 M3/7/2017 3:52:00 PM0
LAW_20170307_NST_Security_guards_charged_with_raping_2_primary_school_pupils.pdf7.6 M3/8/2017 4:16:10 PM0
LAW_20170307_NST_SENT_PACKING.pdf31.5 M3/7/2017 3:46:12 PM0
LAW_20170307_NST_Victim_did_a_lot_to_help_those_in_need_say_netizens.pdf6.8 M3/8/2017 3:59:56 PM0
LAW_20170307_TS_Chief_ justice_ signs_ deal_ with_ DIFC.pdf2.7 M3/7/2017 10:29:49 PM0
LAW_20170307_TS_Court_ urged _to_ dismiss_ judicial_ review_ bid_ by_ Maria.pdf6.8 M3/7/2017 9:50:55 PM0
LAW_20170307_TS_Datuk_ among_ 29_ members_ of_ Gang_ 360 _Devan_charged.pdf31.9 M3/7/2017 8:01:24 PM0
LAW_20170307_TS_Girl_In_Custody_is_Fine.pdf15.4 M3/7/2017 9:32:48 PM0
LAW_20170307_TS_I_Want_My_Child_Have_Full_Right.pdf8.1 M3/7/2017 10:25:36 PM0
LAW_20170307_TS_Khalid_We_Do_Not.pdf4.9 M3/7/2017 9:05:13 PM0
LAW_20170307_TS_Not_Playing_Ball.pdf18.7 M3/7/2017 8:05:06 PM0
LAW_20170307_TS_Probe_Team_Set_Up.pdf6.2 M3/7/2017 8:36:56 PM0
LAW_20170307_TS_Sultan _Nazrin_Educate_Firm.pdf17.0 M3/7/2017 9:41:51 PM0
LAW_20170309_NST_‘Inspection_carried_out_on_clinic_legally_sound’.pdf7.9 M3/9/2017 4:46:58 PM0
LAW_20170309_NST_2_charged_with_55_counts_over_prostitution_raped.pdf2.2 M3/9/2017 4:40:08 PM0
LAW_20170309_NST_WOMAN_GETS_6_MONTHS’_JAIL_FOR_SLAPPING_SON’S_TEACHER.pdf15.8 M3/9/2017 4:21:44 PM0
LAW_20170310_NST_Datuk_Vida_settles_RM4.2m_GST_arrears.pdf2.5 M3/10/2017 4:14:18 PM0
LAW_20170310_NST_JOHOR_EXCO_MAN_HELD_IN_REAL_ESTATE_SCANDAL_PROBE.pdf31.7 M3/10/2017 4:03:01 PM0
LAW_20170310_NST_Liow_ Group_cycling_not_allowed_on_highways.pdf6.1 M3/10/2017 4:24:10 PM0
LAW_20170310_NST_MAN_WHO_CALLED_PASTOR’S_FAMILY_TO_DEMAND_RANSOM_ARRESTED.pdf5.8 M3/10/2017 3:43:01 PM0
LAW_20170310_NST_NET_UPROAR_OVER_TEACHER_MUM_SPAT.pdf10.5 M3/10/2017 4:33:49 PM0
LAW_20170310_NST_Woman_to_be_charged_with_murder_of_maid_today.pdf10.8 M3/10/2017 4:40:19 PM0
PKEJ_20170330_BH_Kesan_awal_angin_monsun_barat_daya.pdf23.0 M2/8/2018 4:29:20 AM0
PTAR_20170301_BH_CIMB_sasar_pengukuhan_pendapatan.pdf14.8 M4/10/2017 10:15:15 AM0
PTAR_20170301_HM_Batik_Madu_Tiga.pdf15.1 M4/10/2017 11:04:34 AM0
PTAR_20170301_NST_In_search_Wan_Azhar_Batik.pdf33.3 M4/10/2017 4:09:42 PM3
PTAR_20170301_TS_Customs_targets_quick_refunds.pdf6.2 M4/11/2017 10:44:45 AM0
PTAR_20170302_HM_Berkembang_seiring_industri_takaful_tempatan.pdf16.0 M4/10/2017 11:20:37 AM0
PTAR_20170303_HM_Tumbuh_Sederhana.pdf11.8 M4/10/2017 11:52:59 AM0
PTAR_20170303_HM_Ubah_wang_haramRM1.57j.pdf15.4 M4/10/2017 11:45:55 AM0
PTAR_20170303_TS_Engineering_firm’s_ex-CEO_claims_trial_in_graft_cases.pdf6.1 M4/11/2017 10:51:09 AM1
PTAR_20170304_HM_Kertas_dinding_terawal_dicetak_pada_1509.pdf13.3 M4/10/2017 12:09:53 PM0
PTAR_20170305_NST_Capturing_The_blues_in_a_paintbrush.pdf74.8 M4/10/2017 5:16:14 PM0
PTAR_20170311_HM_Keunikan_lukisan_Mural.pdf13.1 M4/10/2017 12:23:05 PM1
PTAR_20170311_HM_Sentuhan_Islamik_Modesty.pdf52.0 M4/10/2017 2:50:30 PM0
PTAR_20170312_NST_Mona_lisa_is_smiling.pdf28.7 M4/10/2017 4:55:37 PM0
PTAR_20170313_HM_Ekonomi_Islam.pdf6.5 M4/10/2017 3:37:06 PM0
PTAR_20170313_NST_Malaysia_is_top_investment.pdf8.8 M4/10/2017 4:47:56 PM0
PTAR_20170314_NST_Bank Negara_Macc_IRB_to_jointly_combat.pdf3.3 M4/10/2017 5:02:34 PM0
PTAR_20170315_HM_Kolaborasi_Unik_dan_abstrak.pdf52.6 M4/10/2017 3:52:55 PM0
PTAR_20170317_HM_Emosi_dalam_warna.pdf38.5 M4/11/2017 11:16:46 AM0
PTAR_20170318_BH_Usia_21tahun_mahir_buat_keris.pdf15.8 M3/29/2017 2:13:02 PM0
PTAR_20170318_HM_Seni_Seramik_Sayong.pdf33.0 M4/10/2017 4:00:27 PM0
PTAR_20170323_NST_Shiburi_batik.pdf46.2 M3/31/2017 4:09:28 PM2
PTAR_20170329_BH_Pelukis_tidak_kira_masa_berkarya.pdf28.4 M3/31/2017 4:25:41 PM0
PUU_20170317_NST_Driver_to_be_charged_with_drug_related_offence_today.pdf2.7 M3/17/2017 11:34:28 AM0
PUU_20170322_NST_ACCUSED_MAY_FACE_MURDER_RAP.pdf5.0 M3/22/2017 3:56:44 PM0
PUU_20170322_NST_Datuk_Seri_11_others_claim_trial_to_rioting.pdf9.6 M3/22/2017 4:26:38 PM0
PUU_20170322_NST_I_WAS_RAPED_CLAIMS_MASSEUSE.pdf6.0 M3/22/2017 4:13:33 PM0
PUU_20170323_NST_EAIC_to_investigate_masseuse's_claims.pdf7.4 M3/27/2017 9:29:10 AM0
PUU_20170327_NST_IDENTITY_TO_BE_REVEALED_SOON.pdf6.1 M3/27/2017 11:23:07 AM0
PUU_20170327_NST_NO_COMPROMISE_ON_MISSING_GUNS.pdf25.1 M3/27/2017 11:34:07 AM0
PUU_20170327_TS_Former_CJ_slammed_over_remarks.pdf8.9 M3/27/2017 2:53:54 PM0

Perpustakaan Tun Abdul Razak v. 2.3k